This is the latest recevied weather packets stored in our database for station/object K3BAK-13. If no packets are shown the sender has not sent any weather packets the latest 10 day(s).
| Time | Temp. | Humidity | Pressure | Rain* | Wind** | Luminosity | Snow |
|---|---|---|---|---|---|---|---|
| 1778085359 | 9.44° C | 95% | 1010.9 hPa | 0 mm | - | - | - |
| 1778083559 | 9.44° C | 96% | 1010.4 hPa | 0 mm | - | - | - |
| 1778081462 | 9.44° C | 96% | 1010.3 hPa | 0.25 mm | - | - | - |
| 1778079962 | 9.44° C | 96% | 1009.9 hPa | 0.25 mm | - | - | - |
| 1778077861 | 8.89° C | 96% | 1009.2 hPa | 0.25 mm | - | - | - |
| 1778077257 | 8.89° C | 96% | 1009.2 hPa | 0.25 mm | - | - | - |
| 1778076661 | 8.89° C | 96% | 1008.9 hPa | 0.51 mm | - | - | - |
| 1778073958 | 9.44° C | 95% | 1008.3 hPa | 0.51 mm | - | - | - |
| 1778071558 | 11.67° C | 93% | 1007.3 hPa | 1.27 mm | - | - | - |
| 1778070661 | 13.89° C | 96% | 1007.3 hPa | 1.27 mm | - | - | - |
| 1778069159 | 13.33° C | 96% | 1007.5 hPa | 1.02 mm | - | - | - |
| 1778067965 | 13.33° C | 96% | 1007.3 hPa | 0.51 mm | - | - | - |
| 1778066458 | 13.33° C | 96% | 1006.9 hPa | 1.52 mm | - | - | - |
| 1778064660 | 13.33° C | 96% | 1007.1 hPa | 3.3 mm | - | - | - |
| 1778062558 | 13.33° C | 95% | 1007.1 hPa | 3.05 mm | - | - | - |
| 1778059858 | 13.33° C | 94% | 1007 hPa | 2.54 mm | - | - | - |
| 1778058964 | 13.33° C | 94% | 1007.4 hPa | 3.05 mm | - | - | - |
| 1778058661 | 13.33° C | 94% | 1007.5 hPa | 3.3 mm | - | - | - |
| 1778058358 | 13.33° C | 94% | 1007.6 hPa | 3.05 mm | - | - | - |
| 1778056558 | 13.33° C | 95% | 1007.6 hPa | 2.03 mm | - | - | - |
| 1778056266 | 13.33° C | 95% | 1007.5 hPa | 1.78 mm | - | - | - |
| 1778055657 | 13.33° C | 95% | 1007.4 hPa | 1.27 mm | - | - | - |
| 1778055062 | 13.33° C | 94% | 1007.4 hPa | 0.51 mm | - | - | - |
| 1778054159 | 13.33° C | 94% | 1007.6 hPa | 0 mm | - | - | - |
| 1778052959 | 13.33° C | 94% | 1007.4 hPa | 0.51 mm | - | - | - |
* Rain latest hour (hover to see other rain measurements)
** Current wind speed in m/s (hover to see current wind gust speed)